Showing default

OPTUS 10, 40146

Orbit data source: Space-Track

OPTUS 10, 40146 is a payload satellite owned by SingTel Optus (AU) in GEO that was launched on Thu, 11 Sep 2014 UTC via an ARIANE 5ECA launch vehicle from the French Guiana (FRGUI). Payload-class satellites include a variety of spacecraft equipped with specific instruments for various scientific and technological missions. These include communications satellites like Starlink; space stations such as the ISS; scientific satellites like the Hubble; Earth observation satellites from companies like Planet Labs, Umbra, and HawkEye 360; GPS; miniature CubeSats for education and research; and military/defense satellites.

Not visible in the next 10 days
Identifier
40146, 2014-054A
Orbit
GEO
Country
Flag of AUAU / AUS
Related business
Manufacturer
SS/Loral (MDA)
Mission
Operational Commercial Communications
Bus & Motor
LS-1300LL, R-4D
Mass
3,970 kg wet, ~2,000 kg dry
Launch date (UTC)
2014-09-11 (12 years ago)
Launch vehicle
ARIANE 5ECA
Launch site
French Guiana (FRGUI)
Object type
Payload
Rocket body
Debris
Shape & HBR
Box + 2 Pan, 12.3 m
Radar Cross Section
38.560 m², Large (>1 m²)

Expand to show TLE details & history
Last TLE update: 2 days ago

TLE from 2 days ago
0 OPTUS 10
1 40146U 14054A   26170.98933726 -.00000152  00000-0  00000-0 0  9991
2 40146   0.0657  58.3139 0001989  23.8366 338.2294  1.00271094 43056
Epoch: 2026-06-19T23:44Z
TLE epoch observation values (Epoch: 2026-06-19T23:44:38.739Z)
Latitude
0.01727°
Longitude
156.01218°
Altitude
35,778.459 km
Speed
3.075 km/s
True Right ascension
04h 01m 32s
True Declination
0° 01' 02"
Sunlit
Object was in daylight at epoch
Visualization orbit readout
Latitude
Unknown
Longitude
Unknown
Altitude
Unknown
Speed
Unknown
Apparent Right ascension
Unknown
Apparent Declination
Unknown
Sunlit
N/A
Visualization observer readout
Local Sidereal Time
21:38:58
Azimuth
Unknown
Elevation
Unknown
Doppler factor
Unknown
Orbital elements
Apogee altitude
35,796.246 km
Perigee altitude
35,779.472 km
Semi-major axis
42,165.996 km
Eccentricity
0.0002
Inclination
0.0657°
RAAN
58.3139°
Arg. of periapsis
23.8366°
True anomaly
338.22094°
Mean anomaly
338.2294°
Eccentric anomaly
338.22517°
Mean motion
0.25067 °/min
Orbital period
1,436.16 mins
BSTAR
0
Loading maneuver chart data...
Computing Atmospheric mass density...
Loading historical data...
Loading historical data...
Loading historical data...
Loading historical data...
Loading historical data...
Loading historical data...
Loading historical data...
Other satellites on launch #54 in the year 2014 (2014-09-11 UTC)

Documentation

Showing up to 5 results
|